DLH9HE EDDF-EDDH

Flight info

Callsign DLH9HE
Flight time N/A
Altitude 35000
Route MARUN3W/25C MARUN Y150 TOLGI DCT SAS/N0446F340 P605 NOLGO NOLGO6A
Aircraft A20N/M-SDE2E3FGHIRWXY/LB1

Departure

Time 2026-04-17 12:27
Airport Frankfurt Main Airport (EDDF)

Arrival

Time N/A
Airport Hamburg Helmut Schmidt Airport (EDDH)
Time Latitude Longitude Altitude Speed Heading
2026-04-17 12:02 50.04918 8.57087 359 ft 0 kts 98°
2026-04-17 12:23 50.04908 8.57100 361 ft 5 kts 165°
2026-04-17 12:23 50.04858 8.57080 365 ft 15 kts 204°
2026-04-17 12:24 50.04749 8.57003 360 ft 27 kts 204°
2026-04-17 12:24 50.04582 8.56906 362 ft 21 kts 196°
2026-04-17 12:24 50.04445 8.56855 368 ft 22 kts 188°
2026-04-17 12:24 50.04303 8.56827 366 ft 17 kts 152°
2026-04-17 12:25 50.04300 8.57003 368 ft 19 kts 69°
2026-04-17 12:25 50.04352 8.57214 365 ft 22 kts 72°
2026-04-17 12:25 50.04409 8.57461 366 ft 26 kts 70°
2026-04-17 12:25 50.04475 8.57733 370 ft 28 kts 69°
2026-04-17 12:26 50.04548 8.58032 370 ft 31 kts 69°
2026-04-17 12:26 50.04624 8.58348 373 ft 28 kts 71°
2026-04-17 12:26 50.04645 8.58541 372 ft 9 kts 129°
2026-04-17 12:26 50.04530 8.58617 374 ft 25 kts 175°
2026-04-17 12:27 50.04393 8.58257 373 ft 74 kts 251°
2026-04-17 12:27 50.04118 8.57051 372 ft 160 kts 250°
2026-04-17 12:27 50.03685 8.55245 798 ft 189 kts 249°
2026-04-17 12:27 50.03226 8.53328 1777 ft 188 kts 249°
2026-04-17 12:28 50.02752 8.51400 2683 ft 198 kts 245°
2026-04-17 12:28 50.01983 8.49539 3315 ft 212 kts 225°
2026-04-17 12:28 50.00741 8.48259 4018 ft 221 kts 200°
2026-04-17 12:28 49.99201 8.47687 4736 ft 233 kts 189°
2026-04-17 12:29 49.97572 8.47335 5568 ft 239 kts 188°
2026-04-17 12:29 49.95923 8.46912 6404 ft 242 kts 194°
2026-04-17 12:29 49.94287 8.46248 7050 ft 245 kts 197°
2026-04-17 12:29 49.92670 8.45365 7698 ft 248 kts 208°
2026-04-17 12:30 49.91339 8.43684 8451 ft 250 kts 234°
2026-04-17 12:30 49.90674 8.41214 9197 ft 252 kts 263°
2026-04-17 12:30 49.90874 8.38540 9963 ft 254 kts 291°
2026-04-17 12:30 49.91901 8.36333 10681 ft 256 kts 320°
2026-04-17 12:31 49.93447 8.34944 11410 ft 259 kts 334°
2026-04-17 12:31 49.95185 8.34143 12144 ft 263 kts 351°
2026-04-17 12:31 49.97022 8.34300 12868 ft 269 kts
2026-04-17 12:31 49.98804 8.35136 13585 ft 274 kts 18°
2026-04-17 12:32 50.00553 8.36356 14258 ft 278 kts 23°
2026-04-17 12:32 50.02273 8.37774 14888 ft 282 kts 26°
2026-04-17 12:32 50.04013 8.39293 15516 ft 285 kts 26°
2026-04-17 12:32 50.05723 8.40789 16122 ft 287 kts 26°
2026-04-17 12:33 50.07480 8.42296 16717 ft 290 kts 25°
2026-04-17 12:33 50.09264 8.43790 17319 ft 292 kts 24°
2026-04-17 12:33 50.11068 8.45274 17899 ft 295 kts 24°
2026-04-17 12:33 50.12898 8.46761 18482 ft 298 kts 24°
2026-04-17 12:34 50.14745 8.48255 19006 ft 300 kts 24°
2026-04-17 12:34 50.16604 8.49756 19544 ft 302 kts 23°
2026-04-17 12:34 50.18475 8.51269 20082 ft 304 kts 23°
2026-04-17 12:34 50.20359 8.52794 20614 ft 306 kts 23°
2026-04-17 12:35 50.22253 8.54330 21130 ft 308 kts 23°
2026-04-17 12:35 50.24160 8.55880 21628 ft 310 kts 23°
2026-04-17 12:35 50.26078 8.57441 22117 ft 312 kts 23°
2026-04-17 12:35 50.28010 8.59014 22590 ft 314 kts 22°
2026-04-17 12:37 50.43827 8.71922 24234 ft 415 kts 24°
2026-04-17 12:37 50.46404 8.74043 24240 ft 420 kts 24°
2026-04-17 12:38 50.48992 8.76181 24239 ft 420 kts 24°
2026-04-17 12:38 50.51577 8.78320 24242 ft 420 kts 24°
2026-04-17 12:38 50.54158 8.80457 24244 ft 419 kts 24°
2026-04-17 12:38 50.56739 8.82593 24243 ft 419 kts 24°
2026-04-17 12:39 50.59292 8.84707 24237 ft 419 kts 24°
2026-04-17 12:39 50.61873 8.86844 24243 ft 419 kts 24°
2026-04-17 12:39 50.64453 8.88984 24250 ft 419 kts 24°
2026-04-17 12:39 50.67037 8.91128 24247 ft 419 kts 24°
2026-04-17 12:40 50.69618 8.93273 24248 ft 419 kts 24°
2026-04-17 12:40 50.72197 8.95418 24246 ft 419 kts 24°
2026-04-17 12:40 50.74780 8.97570 24243 ft 419 kts 24°
2026-04-17 12:40 50.77359 8.99721 24241 ft 419 kts 24°
2026-04-17 12:41 50.79938 9.01875 24243 ft 419 kts 24°
2026-04-17 12:41 50.82521 9.04035 24240 ft 419 kts 24°
2026-04-17 12:41 50.85102 9.06197 24242 ft 419 kts 24°
2026-04-17 12:41 50.87680 9.08358 24243 ft 419 kts 24°
2026-04-17 12:42 50.90256 9.10521 24242 ft 419 kts 24°
2026-04-17 12:42 50.92833 9.12687 24245 ft 419 kts 24°
2026-04-17 12:42 50.95412 9.14857 24242 ft 419 kts 24°
2026-04-17 12:42 50.97993 9.17032 24247 ft 420 kts 24°
2026-04-17 12:43 51.00569 9.19205 24238 ft 420 kts 24°
2026-04-17 12:43 51.03149 9.21385 24239 ft 420 kts 24°
2026-04-17 12:43 51.05726 9.23564 24239 ft 420 kts 24°
2026-04-17 12:43 51.08307 9.25750 24239 ft 420 kts 24°
2026-04-17 12:44 51.10874 9.27820 24237 ft 417 kts 19°
2026-04-17 12:44 51.13638 9.29347 24240 ft 414 kts 12°
2026-04-17 12:44 51.16390 9.30435 24239 ft 412 kts
2026-04-17 12:44 51.19202 9.31343 24238 ft 412 kts
2026-04-17 12:45 51.22016 9.32188 24245 ft 412 kts
2026-04-17 12:45 51.24832 9.33042 24242 ft 412 kts
2026-04-17 12:45 51.27646 9.33932 24239 ft 412 kts
2026-04-17 12:45 51.30458 9.34859 24239 ft 413 kts
2026-04-17 12:46 51.33269 9.35814 24244 ft 413 kts
2026-04-17 12:46 51.36074 9.36784 24245 ft 413 kts
2026-04-17 12:46 51.38883 9.37765 24238 ft 413 kts
2026-04-17 12:46 51.41686 9.38748 24237 ft 413 kts
2026-04-17 12:47 51.44495 9.39735 24241 ft 413 kts
2026-04-17 12:47 51.47297 9.40718 24238 ft 413 kts
2026-04-17 12:47 51.50108 9.41704 24238 ft 413 kts
2026-04-17 12:47 51.52915 9.42690 24239 ft 413 kts
2026-04-17 12:48 51.55721 9.43675 24240 ft 413 kts
2026-04-17 12:48 51.58528 9.44662 24242 ft 413 kts
2026-04-17 12:48 51.61337 9.45651 24243 ft 413 kts
2026-04-17 12:48 51.64142 9.46639 24242 ft 413 kts
2026-04-17 12:49 51.66952 9.47630 24258 ft 413 kts
2026-04-17 12:49 51.69759 9.48622 24247 ft 413 kts
2026-04-17 12:49 51.72569 9.49616 24249 ft 413 kts
2026-04-17 12:49 51.75378 9.50612 24251 ft 413 kts
2026-04-17 12:50 51.78187 9.51608 24251 ft 413 kts
2026-04-17 12:50 51.80992 9.52605 24254 ft 413 kts
2026-04-17 12:50 51.83764 9.53911 24253 ft 417 kts 17°
2026-04-17 12:50 51.86442 9.55752 24251 ft 419 kts 21°
2026-04-17 12:51 51.89051 9.57872 24252 ft 421 kts 24°
2026-04-17 12:51 51.91633 9.60114 24252 ft 421 kts 24°
2026-04-17 12:51 51.94202 9.62379 24254 ft 420 kts 24°
2026-04-17 12:51 51.96775 9.64625 24255 ft 420 kts 24°
2026-04-17 12:52 51.99356 9.66843 24254 ft 420 kts 24°
2026-04-17 12:52 52.01948 9.69039 24255 ft 420 kts 23°
2026-04-17 12:52 52.04542 9.71215 24254 ft 420 kts 23°
2026-04-17 12:52 52.07140 9.73383 24254 ft 420 kts 23°
2026-04-17 12:53 52.09741 9.75552 24255 ft 420 kts 23°
2026-04-17 12:53 52.12339 9.77719 24267 ft 420 kts 23°
2026-04-17 12:53 52.14938 9.79892 24257 ft 419 kts 23°
2026-04-17 12:53 52.17531 9.82063 24256 ft 419 kts 23°
2026-04-17 12:54 52.20122 9.84238 24257 ft 419 kts 23°
2026-04-17 12:54 52.22712 9.86415 24258 ft 419 kts 23°
2026-04-17 12:54 52.25343 9.88450 24262 ft 416 kts 18°
2026-04-17 12:54 52.28062 9.90017 24262 ft 414 kts 13°
2026-04-17 12:55 52.30831 9.91304 24262 ft 413 kts 11°
2026-04-17 12:55 52.33615 9.92460 24262 ft 413 kts 10°
2026-04-17 12:55 52.36402 9.93582 24266 ft 412 kts 10°
2026-04-17 12:55 52.39188 9.94716 24262 ft 412 kts 10°
2026-04-17 12:56 52.41969 9.95879 24264 ft 412 kts 11°
2026-04-17 12:56 52.44745 9.97069 24264 ft 413 kts 11°
2026-04-17 12:56 52.47522 9.98282 24260 ft 413 kts 11°
2026-04-17 12:56 52.50293 9.99506 24260 ft 412 kts 11°
2026-04-17 12:57 52.53060 10.00735 24261 ft 412 kts 11°
2026-04-17 12:57 52.55791 10.01953 24261 ft 412 kts 11°
2026-04-17 12:57 52.58556 10.03188 24266 ft 412 kts 11°
2026-04-17 12:57 52.61322 10.04425 24262 ft 411 kts 11°
2026-04-17 12:58 52.64083 10.05661 24263 ft 411 kts 11°
2026-04-17 12:58 52.66843 10.06897 24259 ft 411 kts 11°
2026-04-17 12:58 52.69598 10.08133 24266 ft 410 kts 11°
2026-04-17 12:58 52.72355 10.09370 24266 ft 410 kts 11°
2026-04-17 12:59 52.75107 10.10606 24266 ft 410 kts 11°
2026-04-17 12:59 52.77884 10.11634 24259 ft 406 kts
2026-04-17 12:59 52.80693 10.11856 24268 ft 404 kts 359°
2026-04-17 12:59 52.83504 10.11991 24266 ft 404 kts 358°
2026-04-17 13:00 52.86314 10.12080 24258 ft 405 kts 357°
2026-04-17 13:00 52.89138 10.12164 24261 ft 406 kts 357°
2026-04-17 13:00 52.91963 10.12252 24261 ft 406 kts 357°
2026-04-17 13:00 52.94792 10.12342 24261 ft 406 kts 358°
2026-04-17 13:01 52.97619 10.12433 24261 ft 407 kts 358°
2026-04-17 13:01 53.00448 10.12526 24264 ft 407 kts 358°
2026-04-17 13:01 53.03274 10.12619 24266 ft 407 kts 358°
2026-04-17 13:01 53.06104 10.12712 24267 ft 407 kts 358°
2026-04-17 13:02 53.08933 10.12806 24267 ft 407 kts 358°
2026-04-17 13:02 53.11758 10.12899 24264 ft 407 kts 358°
2026-04-17 13:02 53.14589 10.12993 24268 ft 407 kts 358°
2026-04-17 13:02 53.17417 10.13088 24264 ft 406 kts 358°
2026-04-17 13:03 53.20248 10.13182 24266 ft 406 kts 358°
2026-04-17 13:03 53.23075 10.13276 24263 ft 406 kts 358°
2026-04-17 13:03 53.25901 10.13370 24265 ft 406 kts 358°